[[{"header":{"parameterUnit":"m.s-1","parameterCategory":1,"la1":30.2992,"la2":30.254,"lo1":-89.0895,"lo2":-89.0443,"dy":0.0025,"dx":0.0025,"nx":19,"ny":19,"refTime":"2026-03-11T09:00:00:Z","depth":0,"parameterNumber":2,"parameterNumberName":"U-component_of_WINDS"},"data":[0,0,0,-3.0641,-3.0642,-3.0676,-3.0676,-3.0725,-3.0725,0,0,0,0,0,0,0,0,0,0,0,-3.0634,-3.0634,-3.0641,-3.0642,-3.0676,-3.0676,-3.0725,-3.0725,0,0,0,0,0,0,0,0,0,0,0,-3.0634,-3.0634,-3.0635,-3.0642,-3.0676,-3.0676,-3.0725,-3.0697,0,0,0,0,0,0,0,0,0,0,-3.0663,-3.0659,-3.0634,-3.0635,-3.0642,-3.0676,-3.0676,-3.0696,-3.0699,-3.0712,0,-3.0724,0,-3.0726,-3.0729,-3.0729,0,0,0,-3.064,-3.0656,-3.0663,-3.0635,-3.0643,-3.0676,-3.066,-3.0697,-3.0701,-3.0716,-3.0724,-3.0726,-3.0726,-3.0729,-3.073,-3.0811,-3.0812,0,0,-3.0638,-3.0641,-3.0661,-3.0666,-3.0661,-3.0659,-3.0661,-3.07,-3.0709,-3.0725,-3.0727,-3.0727,-3.073,-3.073,-3.0811,-3.0811,0,0,0,-3.0634,-3.064,-3.0646,-3.0664,-3.067,-3.066,-3.0662,-3.0707,-3.0709,-3.0728,-3.0728,-3.073,-3.0731,-3.081,-3.0811,-3.0838,0,0,0,-3.0633,-3.0638,-3.0645,-3.0648,-3.0669,-3.0689,-3.0669,-3.0706,-3.071,-3.0727,-3.073,-3.0731,-3.081,-3.0811,-3.0836,-3.0849,0,0,0,-3.063,-3.0637,-3.0644,-3.0648,-3.0663,-3.0688,-3.0692,-3.0707,-3.0711,-3.0729,-3.0731,-3.0809,-3.0811,-3.0834,-3.0846,-3.0871,0,0,0,-3.0629,-3.0667,-3.0644,-3.0687,-3.0663,-3.0705,-3.0692,-3.0723,-3.0743,-3.073,-3.081,-3.0811,-3.0834,-3.0845,-3.0869,-3.089,-3.09,0,0,-3.0678,-3.0673,-3.0698,-3.0678,-3.0726,-3.07,-3.0751,-3.0765,-3.0764,-3.0796,-3.0798,-3.0836,-3.0846,-3.087,-3.0958,-3.0966,0,0,0,-3.0714,-3.0732,-3.0744,-3.0763,-3.0775,-3.0787,-3.0793,-3.0799,-3.0825,-3.0781,-3.0853,-3.0859,-3.0873,-3.0882,-3.0889,-3.09,-3.0816,-3.0816,-3.0816,-3.0787,-3.0785,-3.0825,-3.0827,-3.0846,-3.0852,-3.0867,-3.0876,-3.0867,-3.0884,-3.0892,-3.0946,-3.0958,-3.0963,-3.0975,-3.0905,-3.0906,-3.0906,-3.0906,-3.0858,-3.0882,-3.0871,-3.0906,-3.0903,-3.0932,-3.0941,-3.0934,-3.0961,-3.0939,-3.0951,-3.0925,-3.0972,-3.0982,-3.0908,-3.0907,-3.0907,-3.0907,-3.0907,-3.0904,-3.0914,-3.0922,-3.0949,-3.0972,-3.0973,-3.0999,-3.0996,-3.0993,-3.1005,-3.1013,-3.1012,-3.101,-3.101,-3.101,-3.101,-3.101,-3.101,-3.101,-3.0947,-3.0954,-3.0977,-3.0995,-3.1007,-3.1023,-3.1032,-3.1044,-3.1056,-3.1052,-3.1052,-3.104,-3.0978,-3.0961,-3.1013,-3.1013,-3.1012,-3.1012,-3.1012,-3.1016,-3.1,-3.1035,-3.1048,-3.1069,-3.1091,-3.1087,-3.1112,-3.1122,-3.1135,-3.1123,-3.1077,-3.1071,-3.1065,-3.1051,-3.1124,-3.1124,-3.1124,-3.1124,-3.1052,-3.105,-3.1085,-3.1105,-3.1125,-3.1126,-3.1165,-3.1174,-3.118,-3.1185,-3.1175,-3.1157,-3.1152,-3.1148,-3.1141,-3.1127,-3.1218,-3.1218,-3.1218,-3.1094,-3.1093,-3.1127,-3.1133,-3.115,-3.1165,-3.1202,-3.1225,-3.1229,-3.1222,-3.119,-3.1186,-3.1156,-3.1147,-3.1136,-3.1125,-3.11,0,0]},{"header":{"parameterUnit":"m.s-1","parameterCategory":1,"la1":30.2992,"la2":30.254,"lo1":-89.0895,"lo2":-89.0443,"dy":0.0025,"dx":0.0025,"nx":19,"ny":19,"refTime":"2026-03-11T09:00:00:Z","depth":0,"parameterNumber":3,"parameterNumberName":"V-component_of_WINDS"},"data":[0,0,0,3.3573,3.3573,3.3605,3.3606,3.364,3.3641,0,0,0,0,0,0,0,0,0,0,0,3.3558,3.3558,3.3573,3.3573,3.3605,3.3606,3.364,3.3641,0,0,0,0,0,0,0,0,0,0,0,3.3558,3.3558,3.3559,3.3573,3.3605,3.3606,3.364,3.3618,0,0,0,0,0,0,0,0,0,0,3.3588,3.357,3.3558,3.3559,3.3574,3.3605,3.3606,3.3617,3.362,3.3623,0,3.3624,0,3.3633,3.3642,3.3643,0,0,0,3.3577,3.3568,3.3581,3.3559,3.3574,3.3605,3.3592,3.3619,3.3621,3.3626,3.3624,3.3626,3.3633,3.3643,3.3643,3.3651,3.3651,0,0,3.3575,3.3561,3.358,3.3583,3.3577,3.3591,3.3593,3.3621,3.3618,3.3625,3.3627,3.3634,3.3643,3.3643,3.3651,3.3651,0,0,0,3.3568,3.356,3.3573,3.3581,3.3588,3.3592,3.3594,3.3617,3.3622,3.3627,3.3634,3.3643,3.3643,3.3651,3.3651,3.3632,0,0,0,3.3567,3.3556,3.3572,3.3564,3.3587,3.3602,3.3589,3.362,3.3624,3.3634,3.3643,3.3644,3.3651,3.3651,3.3633,3.3625,0,0,0,3.3558,3.3555,3.3558,3.3563,3.3576,3.3602,3.3609,3.3621,3.3628,3.3643,3.3644,3.3651,3.3651,3.3634,3.3627,3.3625,0,0,0,3.3544,3.3539,3.3557,3.3555,3.3576,3.359,3.3609,3.362,3.3631,3.3643,3.3651,3.3651,3.3634,3.3627,3.3626,3.3621,3.3618,0,0,3.353,3.3537,3.3537,3.3554,3.3562,3.3587,3.3593,3.3614,3.3628,3.3643,3.3643,3.3633,3.3627,3.3625,3.3604,3.3601,0,0,0,3.3528,3.3527,3.3532,3.3542,3.356,3.3575,3.3598,3.3607,3.3621,3.3632,3.3632,3.3629,3.3628,3.3627,3.3625,3.3626,3.3649,3.3649,3.3649,3.3486,3.3506,3.3508,3.3532,3.3542,3.3567,3.3578,3.3594,3.3609,3.3609,3.3613,3.3598,3.3596,3.3594,3.3595,3.3612,3.3612,3.3612,3.3612,3.3468,3.3471,3.3495,3.3505,3.3526,3.3535,3.3561,3.3572,3.3584,3.3595,3.3596,3.3606,3.359,3.3593,3.3611,3.3611,3.3611,3.3611,3.3611,3.3443,3.3449,3.3461,3.348,3.3493,3.3518,3.353,3.3549,3.3566,3.3567,3.3575,3.3575,3.3579,3.357,3.357,3.357,3.357,3.3569,3.3569,3.3413,3.3428,3.3435,3.3457,3.3468,3.3484,3.3513,3.3524,3.3542,3.3555,3.3555,3.3571,3.3585,3.3589,3.3569,3.3569,3.3569,3.3569,3.3569,3.3387,3.3397,3.3408,3.342,3.3448,3.3462,3.3487,3.3509,3.3522,3.3527,3.3545,3.3552,3.356,3.3562,3.3565,3.354,3.354,3.354,3.354,3.3367,3.3373,3.3391,3.3409,3.3428,3.3453,3.3468,3.3491,3.3517,3.3527,3.3533,3.3539,3.354,3.3547,3.355,3.3553,3.3525,3.3525,3.3525,3.3353,3.3363,3.3371,3.3397,3.3422,3.3443,3.3459,3.3479,3.351,3.3525,3.3535,3.3536,3.3545,3.3547,3.356,3.3563,3.3569,0,0]}]]